Flag Weather past 2 weeks in Bitterfeld-Wolfen, Saxony-Anhalt, Germany

Now
36 °F

Fog.


Feels Like: 27 °F
Forecast: 27 / 34 °F
Wind: 14 mph from East

Location: Leipzig-Schkeuditz

Current Time: Nov 28, 2014 at 3:48:28 PM

Latest Report: Nov 28, 2014 at 3:20 PM


Visibility: 3 mi

Pressure: 30.01 "Hg

Humidity: 93%

Dew point: 34 °F

Location of Bitterfeld-WolfenLocation

Historic Weather in Bitterfeld-Wolfen — Graph

°F

Bitterfeld-Wolfen temperature yesterday

Maximum temperature yesterday: 41 °F (at 11:50 AM)
Minimum temperature yesterday: 27 °F (at 6:20 AM)
Average temperature yesterday: 34 °F

Past Weeks' High & Low Weather Summary

 TemperatureHumidityPressure
High57 °F (Nov 14, 12:20 PM)100% (Nov 13, 2:20 PM)30.36 "Hg (Nov 13, 2:20 PM)
Low27 °F (Nov 27, 6:20 AM)63% (Nov 23, 1:50 PM)29.53 "Hg (Nov 16, 4:20 AM)
Average42 °F94%30.02 "Hg
* Reported Nov 13 2:20 PM — Nov 28 2:50 PM, Bitterfeld-Wolfen, Weather by CustomWeather, © 2014

Note: Actual official high and low records may vary slightly from our data, if they occured in-between our weather recording intervals... More about our weather records

Advertising

Bitterfeld-Wolfen weather history for previous 24 hours

 ConditionsComfort  
Time TempWeatherWind HumidityBarometerVisibility
2:50 PM
Nov 28
36 °FFog.12 mph93%30.01 "Hg3 mi
2:20 PM36 °FFog.13 mph93%30.01 "Hg3 mi
1:50 PM36 °FFog.14 mph93%30.01 "Hg3 mi
1:20 PM36 °FFog.14 mph93%30.01 "Hg3 mi
12:50 PM36 °FFog.14 mph93%30.04 "Hg3 mi
12:20 PM36 °FMostly cloudy.14 mph87%30.04 "Hg3 mi
11:50 AM36 °FPartly sunny.13 mph87%30.04 "Hg4 mi
11:20 AM36 °FMostly cloudy.14 mph87%30.04 "Hg4 mi
10:50 AM34 °FMore clouds than sun.15 mph93%30.04 "Hg4 mi
10:20 AM34 °FMostly cloudy.17 mph93%30.04 "Hg4 mi
9:50 AM34 °FMostly cloudy.14 mph93%30.01 "Hg4 mi
9:20 AM34 °FMostly cloudy.15 mph93%30.01 "Hg4 mi
8:50 AM36 °FBroken clouds.15 mph87%30.01 "Hg5 mi
8:20 AM36 °FPartly sunny.13 mph87%30.01 "Hg5 mi
7:50 AM36 °FPartly sunny.14 mph87%30.01 "Hg5 mi
7:20 AM36 °FPassing clouds.14 mph87%29.98 "Hg5 mi
6:50 AM34 °FOvercast.12 mph93%29.98 "Hg5 mi
6:20 AM34 °FPassing clouds.12 mph93%29.98 "Hg5 mi
5:50 AM34 °FPassing clouds.10 mph93%29.98 "Hg5 mi
5:20 AM34 °FPassing clouds.9 mph93%29.98 "Hg5 mi
4:50 AM34 °FPassing clouds.9 mph93%29.98 "Hg5 mi
4:20 AM32 °FPassing clouds.9 mph100%29.98 "Hg5 mi
3:50 AM32 °FClear.12 mph93%29.95 "Hg5 mi
3:20 AM32 °FClear.10 mph93%29.95 "Hg5 mi
2:50 AM32 °FClear.10 mph93%29.95 "Hg5 mi
2:20 AM32 °FClear.13 mph93%29.95 "Hg5 mi
1:50 AM32 °FClear.12 mph100%29.95 "Hg5 mi
1:20 AM32 °FClear.12 mph93%29.95 "Hg6 mi
12:50 AM32 °FClear.10 mph93%29.95 "Hg6 mi
12:20 AM30 °FClear.12 mph100%29.95 "Hg6 mi
11:50 PM
Nov 27
32 °FClear.10 mph93%29.95 "Hg6 mi
11:20 PM32 °FClear.10 mph93%29.95 "Hg10 mi
10:50 PM32 °FPassing clouds.12 mph100%29.95 "HgN/A
10:20 PM32 °FPassing clouds.10 mph93%29.95 "HgN/A
9:50 PM32 °FPassing clouds.10 mph93%29.95 "HgN/A
9:20 PM32 °FPassing clouds.9 mph93%29.95 "HgN/A
8:50 PM32 °FPassing clouds.10 mph93%29.95 "HgN/A
8:20 PM32 °FClear.10 mph93%29.92 "Hg10 mi
7:50 PM34 °FClear.10 mph93%29.92 "Hg10 mi
7:20 PM32 °FClear.10 mph93%29.92 "Hg10 mi
6:50 PM34 °FClear.10 mph93%29.92 "Hg10 mi
6:20 PM34 °FPassing clouds.10 mph93%29.92 "HgN/A
5:50 PM36 °FPassing clouds.9 mph87%29.92 "HgN/A
5:20 PM37 °FPassing clouds.10 mph87%29.92 "HgN/A
4:50 PM37 °FPassing clouds.9 mph87%29.92 "HgN/A
4:20 PM37 °FPassing clouds.10 mph87%29.92 "Hg6 mi
3:50 PM37 °FBroken clouds.9 mph87%29.92 "Hg6 mi
3:20 PM37 °FPartly sunny.9 mph87%29.92 "Hg6 mi
Weather by CustomWeather, © 2014

See weather overviewHow to use our weather pages